Hourly Weather Roundup
Issued by NWS Central Illinois

Home | Current Version | Previous Version | Text Only | Print | Product List | Glossary On
Versions: 1 2 3 4 5 6 7 8 9 10 11 12 13 14 15 16 17 18 19 20 21 22 23 24 25 26 27 28 29 30 31 32 33 34 35 36 37 38 39 40 41 42 43 44 45 46 47 48 49 50
000
NZUS43 KILX 271910
HWRILX

AREA WEATHER ROUNDUP
NATIONAL WEATHER SERVICE, LINCOLN IL
200 PM CDT WED AUG 27 2014


CITY           SKY/WX    TMP DP  RH WIND       PRES   REMARKS
BLOOMINGTON    PTSUNNY   83  70  64 E6        30.14F HX  87
CHAMPAIGN      PTSUNNY   87  73  62 VRB3      30.11F HX  94
DECATUR        CLOUDY    85  74  69 CALM      30.12S HX  92
FLORA          SUNNY     88  74  63 N3        30.08F HX  97
GALESBURG      CLOUDY    82  70  65 NW3       30.16S HX  86
JACKSONVILLE   PTSUNNY   83  75  78 N6        30.13S HX  90
LACON          CLOUDY    79  67  66 N3        30.13S HX  81
LAWRENCEVILLE  MOSUNNY   89  77  67 NW8       30.07F HX 101
LITCHFIELD     MOSUNNY   86  75  70 NW3       30.11S HX  95
$$


CITY           SKY/WX    TMP DP  RH WIND       PRES   REMARKS
LINCOLN        PTSUNNY   86  73  64 N5        30.08S HX  92
MACOMB         CLOUDY    79  70  74 N3        30.17S HX  82
MATTOON        CLOUDY    85  74  69 N7        30.10S HX  92
MT CARMEL AP   SUNNY     91  73  55 N7        30.07S HX 100
OLNEY-NOBLE AP MOSUNNY   91  79  66 CALM      30.08F HX 107
PARIS          MOSUNNY   87  73  63 CALM      30.10F HX  93
PEORIA         CLOUDY    83  67  58 NW5       30.13S HX  85
PONTIAC        CLOUDY    81  70  69 N3        30.14S HX  84
RANTOUL        PTSUNNY   85  69  58 CALM      30.12F HX  88
ROBINSON       SUNNY     91  73  54 N5        30.09S HX  99
SPRINGFIELD    CLOUDY    86  74  67 N6        30.11F HX  94
TAYLORVILLE    PTSUNNY   82  73  74 CALM      30.10S HX  88
$$

...REGIONAL REPORTS...


CITY           SKY/WX    TMP DP  RH WIND       PRES   REMARKS
CHICAGO O`HARE PTSUNNY   80  61  52 E9        30.13F HX  81
KANKAKEE       CLOUDY    79  66  64 CALM      30.13F HX  81
MOLINE         CLOUDY    79  63  57 N3        30.16S HX  80
MOUNT VERNON   PTSUNNY   91  75  59 NE5       30.08F HX 102
PITTSFIELD     CLOUDY    83  75  76 N9        30.13F HX  90
QUINCY         PTSUNNY   81  72  74 N13       30.13F HX  85
ROCKFORD       CLOUDY    79  58  48 NW6       30.17S HX  80
$$


CITY           SKY/WX    TMP DP  RH WIND       PRES   REMARKS
BURLINGTON     LGT RAIN  76  69  79 NE6       30.15S
CEDAR RAPIDS   CLOUDY    74  64  71 S3        30.17F
DES MOINES     CLOUDY    74  66  76 SE3       30.16F
KIRKSVILLE     LGT RAIN  73  71  93 N9        30.15F
OTTUMWA        CLOUDY    73  67  81 E3        30.15F
ST LOUIS       PTSUNNY   94  73  50 CALM      30.08F HX 103
$$


CITY           SKY/WX    TMP DP  RH WIND       PRES   REMARKS
TERRE HAUTE    SUNNY     88  71  57 VRB5      30.09S HX  94
EVANSVILLE     SUNNY     94  71  47 NE3       30.07F HX 101
INDIANAPOLIS   MOSUNNY   87  70  56 W5        30.08F HX  92
LAFAYETTE      PTSUNNY   82  70  66 N6        30.10S HX  86
MADISON        PTSUNNY   76  57  51 CALM      30.18S
MILWAUKEE      PTSUNNY   71  62  73 NE9       30.17S
$$




USA.gov is the U.S. government's official web portal to all federal, state and local government web resources and services.